Simultaneous Nadir Overpasses (SNOs) Predictions

Prediction of SNOs between GOES-17 and AQUA Satellite Orbit:

Table of predicted SNOs for the next 14.0 days since TLE Epoch: 3/20/2021
Index Date Time (GOES-17) GOES-17 Lat,Lon AQUA Lat,Lon Distance(km) Time Diff (sec)
1 03/21/2021 10:36:46 -0.04,-137.19 -0.36,-135.68 171.55 80
2 03/21/2021 22:58:10 0.04,-137.18 -0.75,-140.87 419.51 80
3 03/23/2021 22:45:59 0.03,-137.16 -0.12,-137.92 85.86 80
4 03/25/2021 22:36:27 0.02,-137.14 0.46,-134.95 247.30 80
5 03/26/2021 10:57:42 -0.02,-137.13 0.62,-140.12 339.59 80
6 03/28/2021 10:42:51 -0.02,-137.10 -0.03,-137.17 7.59 80
7 03/30/2021 10:30:40 -0.02,-137.06 -0.61,-134.20 324.49 80
8 03/30/2021 22:52:03 0.02,-137.04 -0.50,-139.39 267.50 80
9 04/01/2021 22:42:32 0.02,-137.00 0.15,-136.44 63.19 80
